Regional Weather Roundup
Issued by NWS

Home | Current Version | Previous Version | Text Only | Print | Product List | Glossary On
Versions: 1 2 3 4 5 6 7 8 9 10 11 12 13 14 15 16 17 18 19 20 21 22 23 24 25 26 27
000
ASUS45 KREV 240410
RWRNV
NEVADA REGIONAL WEATHER ROUNDUP
NATIONAL WEATHER SERVICE RENO NV
900 PM PDT TUE AUG 23 2016

NOTE: "FAIR" INDICATES FEW OR NO CLOUDS BELOW 12,000 FEET WITH NO
SIGNIFICANT WEATHER AND/OR OBSTRUCTIONS TO VISIBILITY.

NVZ001-003-004-240500-
WESTERN NEVADA

CITY           SKY/WX    TMP DP  RH WIND       PRES   REMARKS
RENO           CLEAR     78  29  16 NW8       30.18R
CARSON CITY    FAIR      72  30  21 S3        30.22R
MINDEN         FAIR      73  30  20 W13       30.22R
PYRAMID LAKE     N/A     81 N/A N/A SW13        N/A
FALLON         PTCLDY    81  29  15 W14       30.10R
LOVELOCK       CLEAR     73  21  14 NW7       30.09R
HAWTHORNE        N/A    N/A N/A N/A MISG        N/A
$$

NVZ002-CAZ072-073-240500-
NORTHERN AND CENTRAL SIERRA

CITY           SKY/WX    TMP DP  RH WIND       PRES   REMARKS
S. LAKE TAHOE  CLEAR     62  28  27 CALM      30.33R
TRUCKEE        CLEAR     59  34  38 SE3       30.32R
SQUAW VLY 8000 NOT AVBL
SUSANVILLE     CLEAR     73  30  20 NW7       30.17R
MAMMOTH LAKES  FAIR      58  38  46 CALM      30.38R
BRIDGEPORT       N/A     67  27  22 SW8       30.34R
$$

NVZ030-031-036-240500-
NORTHERN NEVADA

CITY           SKY/WX    TMP DP  RH WIND       PRES   REMARKS
ELKO           CLEAR     71  14  11 SE3       30.14R
WINNEMUCCA     CLEAR     71  22  15 NW9       30.10R
WENDOVER       CLEAR     79  21  11 N17       30.08R
$$

NVZ035-037-240500-
CENTRAL NEVADA

CITY           SKY/WX    TMP DP  RH WIND       PRES   REMARKS
ELY            PTCLDY    62  27  26 SE5       30.22R
EUREKA           N/A     65  28  24 SW3       30.20R
$$

NVZ013-014-240500-
SOUTH CENTRAL NEVADA

CITY           SKY/WX    TMP DP  RH WIND       PRES   REMARKS
TONOPAH        MOCLDY    78  36  21 W13       30.20R
$$

NVZ017-020-022-240500-
SOUTHERN NEVADA

CITY           SKY/WX    TMP DP  RH WIND       PRES   REMARKS
LAS VEGAS      MOCLDY    89  51  27 NE13      29.97R
N. LAS VEGAS   RAIN      87  54  32 E9        29.99R
NELLIS AFB     MOCLDY    86  58  37 NE9       29.97R
HENDERSON      PTCLDY    87  55  33 SE7       30.03R
MERCURY        MOCLDY    85  39  19 E6        30.03R
$$




USA.gov is the U.S. government's official web portal to all federal, state and local government web resources and services.